User: anonymous   Login
Location: Unspecified
(35.7250°N, 0.0000°E)
Time: 16:49:49
(UTC+00:00)
Language:

Tiros 1 despin weight - Orbit

View from above orbital plane
View from above orbital plane
View from above satellite
View from above satellite

Ground track
Ground track

The orbit data is extracted from the following two-line orbital elements,

1   115U 60002D   19170.35349009 -.00000130  00000-0  11796-4 0  9999
2   115  48.1657 224.8579 0033641  84.3084 276.1663 14.83449011158911
Epoch (UTC): 19 June 2019 08:29:01
Eccentricity: 0.0033641
inclination: 48.1657°
perigee height: 595 km
apogee height: 642 km
right ascension of ascending node: 224.8579°
argument of perigee: 84.3084°
revolutions per day: 14.83449011
mean anomaly at epoch: 276.1663°
orbit number at epoch: 15891

The dashed part of the orbit path shows where the satellite is in the earth's shadow,  

DLR